DAL25 MDPC-TISX

Flight info

Callsign DAL25
Flight time 0h 41m
Altitude 33000
Route MELLA3T MELLA G633 MAZ RTE12 JOSHE RTE4 VEDAS G633 SNOOZ
Aircraft A319/M-SDE3FGHIRWY/LB1

Departure

Time 2026-05-04 22:48
Airport Punta Cana International Airport (MDPC)

Arrival

Time 2026-05-04 23:29
Airport Henry E. Rohlsen Airport (TISX)
Time Latitude Longitude Altitude Speed Heading
2026-05-04 22:11 18.56403 -68.36154 51 ft 0 kts 176°
2026-05-04 22:31 18.56402 -68.36154 51 ft 0 kts 176°
2026-05-04 22:34 18.56412 -68.36155 49 ft 3 kts 176°
2026-05-04 22:34 18.56431 -68.36156 50 ft 3 kts 176°
2026-05-04 22:34 18.56449 -68.36158 52 ft 3 kts 134°
2026-05-04 22:34 18.56457 -68.36175 45 ft 3 kts 107°
2026-05-04 22:35 18.56462 -68.36193 51 ft 3 kts 126°
2026-05-04 22:35 18.56474 -68.36207 51 ft 2 kts 132°
2026-05-04 22:35 18.56480 -68.36220 49 ft 0 kts 88°
2026-05-04 22:37 18.56480 -68.36218 49 ft 1 kts 88°
2026-05-04 22:37 18.56480 -68.36215 48 ft 1 kts 88°
2026-05-04 22:37 18.56480 -68.36207 49 ft 2 kts 88°
2026-05-04 22:37 18.56482 -68.36189 47 ft 3 kts 84°
2026-05-04 22:38 18.56485 -68.36160 50 ft 6 kts 83°
2026-05-04 22:38 18.56486 -68.36150 52 ft 1 kts 83°
2026-05-04 22:38 18.56490 -68.36121 52 ft 7 kts 83°
2026-05-04 22:38 18.56497 -68.36052 52 ft 12 kts 84°
2026-05-04 22:39 18.56506 -68.35953 50 ft 14 kts 84°
2026-05-04 22:39 18.56515 -68.35849 52 ft 11 kts 85°
2026-05-04 22:39 18.56551 -68.35780 52 ft 12 kts 19°
2026-05-04 22:39 18.56637 -68.35784 52 ft 13 kts 354°
2026-05-04 22:40 18.56735 -68.35794 51 ft 16 kts 354°
2026-05-04 22:40 18.56849 -68.35804 51 ft 17 kts 356°
2026-05-04 22:40 18.56964 -68.35812 50 ft 17 kts 356°
2026-05-04 22:40 18.57082 -68.35820 52 ft 17 kts 356°
2026-05-04 22:41 18.57205 -68.35827 51 ft 18 kts 356°
2026-05-04 22:41 18.57336 -68.35835 51 ft 19 kts 356°
2026-05-04 22:41 18.57451 -68.35840 50 ft 10 kts 358°
2026-05-04 22:41 18.57503 -68.35842 50 ft 8 kts 358°
2026-05-04 22:42 18.57547 -68.35805 48 ft 10 kts 65°
2026-05-04 22:42 18.57567 -68.35729 50 ft 12 kts 78°
2026-05-04 22:42 18.57593 -68.35634 50 ft 15 kts 72°
2026-05-04 22:42 18.57622 -68.35523 50 ft 16 kts 76°
2026-05-04 22:43 18.57689 -68.35464 48 ft 13 kts 355°
2026-05-04 22:43 18.57762 -68.35491 51 ft 10 kts 341°
2026-05-04 22:43 18.57765 -68.35493 51 ft 0 kts 339°
2026-05-04 22:44 18.57767 -68.35494 51 ft 2 kts 339°
2026-05-04 22:44 18.57793 -68.35508 51 ft 7 kts 319°
2026-05-04 22:45 18.57795 -68.35549 51 ft 0 kts 254°
2026-05-04 22:47 18.57795 -68.35550 51 ft 0 kts 254°
2026-05-04 22:47 18.57784 -68.35591 48 ft 26 kts 253°
2026-05-04 22:47 18.57650 -68.36064 51 ft 105 kts 253°
2026-05-04 22:48 18.57370 -68.37021 86 ft 161 kts 250°
2026-05-04 22:48 18.57072 -68.38179 722 ft 164 kts 250°
2026-05-04 22:48 18.56777 -68.39344 1427 ft 166 kts 250°
2026-05-04 22:48 18.56482 -68.40517 2104 ft 171 kts 250°
2026-05-04 22:49 18.56153 -68.41778 2611 ft 185 kts 246°
2026-05-04 22:49 18.55332 -68.42795 3062 ft 190 kts 201°
2026-05-04 22:49 18.53969 -68.42936 3404 ft 212 kts 167°
2026-05-04 22:49 18.52527 -68.42522 4237 ft 218 kts 162°
2026-05-04 22:50 18.51062 -68.42062 5166 ft 222 kts 161°
2026-05-04 22:50 18.49565 -68.41588 6028 ft 230 kts 160°
2026-05-04 22:50 18.47954 -68.41081 6522 ft 254 kts 161°
2026-05-04 22:50 18.46204 -68.40536 6917 ft 267 kts 161°
2026-05-04 22:51 18.44415 -68.39989 6997 ft 268 kts 162°
2026-05-04 22:51 18.42620 -68.39449 7008 ft 268 kts 162°
2026-05-04 22:51 18.40879 -68.38773 7010 ft 266 kts 150°
2026-05-04 22:51 18.39403 -68.37613 7029 ft 267 kts 133°
2026-05-04 22:52 18.38321 -68.35992 7735 ft 273 kts 118°
2026-05-04 22:52 18.37736 -68.34810 8402 ft 274 kts 118°
2026-05-04 22:52 18.36830 -68.33026 9313 ft 279 kts 119°
2026-05-04 22:52 18.35898 -68.31205 10133 ft 286 kts 120°
2026-05-04 22:53 18.34913 -68.29285 10500 ft 309 kts 120°
2026-05-04 22:53 18.33864 -68.27242 11040 ft 322 kts 120°
2026-05-04 22:53 18.32806 -68.25170 11723 ft 329 kts 120°
2026-05-04 22:53 18.31702 -68.22999 12441 ft 335 kts 119°
2026-05-04 22:54 18.30591 -68.20814 13114 ft 342 kts 118°
2026-05-04 22:54 18.29471 -68.18611 13783 ft 348 kts 118°
2026-05-04 22:54 18.28323 -68.16349 14404 ft 353 kts 118°
2026-05-04 22:54 18.27155 -68.14049 14973 ft 359 kts 119°
2026-05-04 22:55 18.25965 -68.11710 15548 ft 366 kts 119°
2026-05-04 22:55 18.24754 -68.09338 16173 ft 370 kts 119°
2026-05-04 22:55 18.23526 -68.06933 16779 ft 375 kts 119°
2026-05-04 22:55 18.22288 -68.04504 17409 ft 379 kts 119°
2026-05-04 22:56 18.21136 -68.01990 17997 ft 385 kts 111°
2026-05-04 22:56 18.20428 -67.99255 18557 ft 391 kts 99°
2026-05-04 22:56 18.20250 -67.96395 19105 ft 394 kts 87°
2026-05-04 22:56 18.20451 -67.93511 19698 ft 396 kts 85°
2026-05-04 22:57 18.20661 -67.90605 20270 ft 399 kts 86°
2026-05-04 22:57 18.20863 -67.87686 20851 ft 401 kts 86°
2026-05-04 22:57 18.21058 -67.84752 21455 ft 403 kts 86°
2026-05-04 22:57 18.21251 -67.81799 22014 ft 406 kts 87°
2026-05-04 22:58 18.21446 -67.78829 22652 ft 407 kts 87°
2026-05-04 22:58 18.21641 -67.75887 23262 ft 409 kts 88°
2026-05-04 22:58 18.21839 -67.72894 23823 ft 410 kts 87°
2026-05-04 22:58 18.22040 -67.69889 24289 ft 413 kts 87°
2026-05-04 22:59 18.22243 -67.66869 24701 ft 416 kts 87°
2026-05-04 22:59 18.22446 -67.63819 25124 ft 419 kts 87°
2026-05-04 22:59 18.22653 -67.60741 25520 ft 423 kts 86°
2026-05-04 22:59 18.22861 -67.57638 25916 ft 427 kts 86°
2026-05-04 23:00 18.23070 -67.54511 26320 ft 430 kts 86°
2026-05-04 23:00 18.23282 -67.51354 26705 ft 433 kts 86°
2026-05-04 23:00 18.23490 -67.48215 27134 ft 435 kts 86°
2026-05-04 23:00 18.23699 -67.45029 27493 ft 439 kts 85°
2026-05-04 23:01 18.23909 -67.41815 27865 ft 442 kts 85°
2026-05-04 23:01 18.24121 -67.38571 28249 ft 445 kts 85°
2026-05-04 23:01 18.24334 -67.35312 28569 ft 449 kts 85°
2026-05-04 23:01 18.24549 -67.32025 28947 ft 451 kts 85°
2026-05-04 23:02 18.24765 -67.28721 29281 ft 455 kts 85°
2026-05-04 23:02 18.24982 -67.25393 29687 ft 457 kts 85°
2026-05-04 23:02 18.25199 -67.22045 30044 ft 460 kts 85°
2026-05-04 23:02 18.25414 -67.18679 30368 ft 462 kts 85°
2026-05-04 23:03 18.25615 -67.15346 30684 ft 464 kts 86°
2026-05-04 23:03 18.25585 -67.11935 30962 ft 468 kts 90°
2026-05-04 23:03 18.25513 -67.08511 31277 ft 470 kts 90°
2026-05-04 23:03 18.25443 -67.05062 31548 ft 473 kts 90°
2026-05-04 23:04 18.25373 -67.01595 31902 ft 473 kts 91°
2026-05-04 23:04 18.25301 -66.98139 32328 ft 473 kts 91°
2026-05-04 23:04 18.25228 -66.94684 32736 ft 472 kts 91°
2026-05-04 23:04 18.25154 -66.91224 32998 ft 473 kts 91°
2026-05-04 23:05 18.25009 -66.84457 33062 ft 447 kts 91°
2026-05-04 23:05 18.24868 -66.78028 33060 ft 436 kts 91°
2026-05-04 23:06 18.24726 -66.71664 33062 ft 435 kts 91°
2026-05-04 23:06 18.24586 -66.65308 33058 ft 434 kts 91°
2026-05-04 23:07 18.24443 -66.58959 33058 ft 434 kts 91°
2026-05-04 23:07 18.24266 -66.52623 33073 ft 433 kts 95°
2026-05-04 23:08 18.23775 -66.49482 32656 ft 437 kts 105°
2026-05-04 23:08 18.22742 -66.46487 32093 ft 435 kts 115°
2026-05-04 23:08 18.21471 -66.43610 31601 ft 432 kts 115°
2026-05-04 23:08 18.20233 -66.40740 31105 ft 430 kts 114°
2026-05-04 23:09 18.19021 -66.37876 30630 ft 427 kts 113°
2026-05-04 23:09 18.17823 -66.35023 30155 ft 425 kts 113°
2026-05-04 23:09 18.16648 -66.32222 29655 ft 422 kts 112°
2026-05-04 23:09 18.15468 -66.29413 29210 ft 418 kts 113°
2026-05-04 23:10 18.14295 -66.26635 28775 ft 414 kts 113°
2026-05-04 23:10 18.13125 -66.23875 28334 ft 410 kts 113°
2026-05-04 23:10 18.11967 -66.21150 27910 ft 406 kts 113°
2026-05-04 23:10 18.10817 -66.18445 27477 ft 403 kts 113°
2026-05-04 23:11 18.09678 -66.15774 27036 ft 396 kts 114°
2026-05-04 23:11 18.08565 -66.13164 26595 ft 386 kts 114°
2026-05-04 23:11 18.07476 -66.10616 26172 ft 380 kts 114°
2026-05-04 23:11 18.06397 -66.08086 25723 ft 378 kts 114°
2026-05-04 23:12 18.05340 -66.05600 25279 ft 377 kts 114°
2026-05-04 23:12 18.04272 -66.03095 24824 ft 375 kts 115°
2026-05-04 23:12 18.03205 -66.00597 24354 ft 374 kts 115°
2026-05-04 23:12 18.02144 -65.98116 23887 ft 371 kts 115°
2026-05-04 23:13 18.01095 -65.95660 23383 ft 363 kts 115°
2026-05-04 23:13 18.00081 -65.93280 22929 ft 352 kts 115°
2026-05-04 23:13 17.99098 -65.90970 22503 ft 341 kts 115°
2026-05-04 23:13 17.98194 -65.88703 22088 ft 332 kts 109°
2026-05-04 23:14 17.97633 -65.86376 21695 ft 326 kts 103°
2026-05-04 23:14 17.97164 -65.84044 21304 ft 326 kts 102°
2026-05-04 23:14 17.96685 -65.81710 20914 ft 327 kts 103°
2026-05-04 23:14 17.96201 -65.79377 20520 ft 327 kts 103°
2026-05-04 23:15 17.95717 -65.77037 20132 ft 328 kts 102°
2026-05-04 23:15 17.95236 -65.74692 19743 ft 328 kts 102°
2026-05-04 23:15 17.94754 -65.72344 19345 ft 329 kts 102°
2026-05-04 23:15 17.94275 -65.70019 18965 ft 330 kts 102°
2026-05-04 23:16 17.93782 -65.67628 18571 ft 332 kts 102°
2026-05-04 23:16 17.93292 -65.65254 18151 ft 333 kts 102°
2026-05-04 23:16 17.92804 -65.62878 17744 ft 333 kts 102°
2026-05-04 23:16 17.92315 -65.60498 17313 ft 334 kts 102°
2026-05-04 23:17 17.91832 -65.58137 16914 ft 334 kts 102°
2026-05-04 23:17 17.91343 -65.55755 16529 ft 333 kts 102°
2026-05-04 23:17 17.90850 -65.53378 16141 ft 333 kts 102°
2026-05-04 23:17 17.90357 -65.51006 15761 ft 332 kts 102°
2026-05-04 23:18 17.89866 -65.48639 15381 ft 331 kts 102°
2026-05-04 23:18 17.89381 -65.46279 15002 ft 331 kts 102°
2026-05-04 23:18 17.88895 -65.43923 14617 ft 330 kts 102°
2026-05-04 23:18 17.88408 -65.41575 14235 ft 329 kts 102°
2026-05-04 23:19 17.87923 -65.39237 13839 ft 325 kts 102°
2026-05-04 23:19 17.87448 -65.36949 13432 ft 316 kts 103°
2026-05-04 23:19 17.86991 -65.34759 13072 ft 307 kts 103°
2026-05-04 23:19 17.86535 -65.32570 12690 ft 306 kts 103°
2026-05-04 23:20 17.86083 -65.30394 12303 ft 305 kts 103°
2026-05-04 23:20 17.85630 -65.28218 11932 ft 304 kts 103°
2026-05-04 23:20 17.85180 -65.26053 11532 ft 303 kts 103°
2026-05-04 23:20 17.84731 -65.23894 11158 ft 302 kts 103°
2026-05-04 23:21 17.84281 -65.21749 10756 ft 301 kts 104°
2026-05-04 23:21 17.83832 -65.19607 10356 ft 300 kts 103°
2026-05-04 23:21 17.83384 -65.17468 9950 ft 299 kts 103°
2026-05-04 23:21 17.82946 -65.15366 9509 ft 290 kts 104°
2026-05-04 23:22 17.82522 -65.13330 9112 ft 281 kts 104°
2026-05-04 23:22 17.82113 -65.11360 8712 ft 272 kts 103°
2026-05-04 23:22 17.81642 -65.09472 8322 ft 262 kts 115°
2026-05-04 23:22 17.80635 -65.07941 7943 ft 252 kts 137°
2026-05-04 23:23 17.79217 -65.06920 7560 ft 244 kts 148°
2026-05-04 23:23 17.77778 -65.06011 7183 ft 238 kts 148°
2026-05-04 23:23 17.76393 -65.05131 6818 ft 234 kts 148°
2026-05-04 23:23 17.75019 -65.04251 6448 ft 229 kts 147°
2026-05-04 23:24 17.73674 -65.03390 6072 ft 224 kts 147°
2026-05-04 23:24 17.72358 -65.02547 5702 ft 219 kts 146°
2026-05-04 23:24 17.71070 -65.01723 5336 ft 214 kts 146°
2026-05-04 23:24 17.69812 -65.00919 4988 ft 210 kts 146°
2026-05-04 23:25 17.68672 -65.00004 4620 ft 204 kts 124°
2026-05-04 23:25 17.68266 -64.98631 4275 ft 199 kts 87°
2026-05-04 23:25 17.68568 -64.97224 3928 ft 197 kts 81°
2026-05-04 23:25 17.68756 -64.95819 3596 ft 191 kts 86°
2026-05-04 23:26 17.68860 -64.94481 3304 ft 178 kts 88°
2026-05-04 23:26 17.68951 -64.93219 2979 ft 168 kts 89°
2026-05-04 23:26 17.69045 -64.92035 2688 ft 158 kts 88°
2026-05-04 23:26 17.69138 -64.90922 2413 ft 149 kts 89°
2026-05-04 23:27 17.69229 -64.89871 2159 ft 142 kts 89°
2026-05-04 23:27 17.69320 -64.88851 1913 ft 139 kts 89°
2026-05-04 23:27 17.69411 -64.87863 1662 ft 136 kts 88°
2026-05-04 23:27 17.69505 -64.86873 1420 ft 134 kts 87°
2026-05-04 23:28 17.69597 -64.85927 1190 ft 131 kts 89°
2026-05-04 23:28 17.69688 -64.84990 968 ft 129 kts 88°
2026-05-04 23:28 17.69761 -64.84048 691 ft 131 kts 88°
2026-05-04 23:28 17.69869 -64.83099 482 ft 132 kts 87°
2026-05-04 23:29 17.69959 -64.82123 221 ft 137 kts 87°
2026-05-04 23:29 17.70055 -64.81160 74 ft 125 kts 86°
2026-05-04 23:29 17.70135 -64.80369 44 ft 86 kts 83°
2026-05-04 23:29 17.70168 -64.79930 39 ft 31 kts 114°
2026-05-04 23:30 17.70109 -64.79802 38 ft 9 kts 130°
2026-05-04 23:30 17.70051 -64.79784 38 ft 10 kts 178°
2026-05-04 23:30 17.69980 -64.79775 38 ft 11 kts 155°
2026-05-04 23:30 17.69964 -64.79737 38 ft 0 kts 89°